Fremont, MI

2:56 AM EDT on September 15, 2019 (GMT -0400)
Fremont

Weather History for KFFX - June, 2019

Change the Weather History Date:

Tuesday, June 11, 2019

  Actual Average (KMKG) Record (KMKG)
Temperature  
Mean Temperature 61 °F -  
Max Temperature 77 °F 75 °F 94 °F (1956)
Min Temperature 45 °F 52 °F 31 °F (1972)
Degree Days  
Heating Degree Days 4    
Growing Degree Days 11 (Base 50)    
Moisture  
Dew Point 44 °F    
Average Humidity 59    
Maximum Humidity 99    
Minimum Humidity 22    
Precipitation  
Precipitation 0.00 in - - ()
Sea Level Pressure  
Sea Level Pressure 30.12 in    
Wind  
Wind Speed 3 mph ()    
Max Wind Speed 13 mph    
Max Gust Speed 17 mph    
Visibility 9.9 miles    
Events      
Averages and records for this station are not official NWS values.
T = Trace of Precipitation, MM = Missing Value Source: Averaged Metar Reports

Daily Weather History Graph

Daily Weather History Graph

Search for Another Location

Airport or City:

Astronomy

Jun. 11, 2019 Rise Set
Actual Time 6:02 AM EDT 9:24 PM EDT
Civil Twilight 5:27 AM EDT 10:00 PM EDT
Nautical Twilight 4:41 AM EDT 10:46 PM EDT
Astronomical Twilight 3:43 AM EDT 11:44 PM EDT
Moon 3:11 PM EDT (6/11) 2:59 AM EDT (6/11)
Length of Visible Light 16h 32m
Length of Day
15h 21m
Waxing Gibbous, 66% of the Moon is Illuminated
Jun 11
Waxing Gibbous
Jun 17
Full
Jun 25
Last Quarter
Jul 2
New
Jul 9
First Quarter

Hourly Weather History & Observations

Time (EDT) Temp. Dew Point Humidity Pressure Visibility Wind Dir Wind Speed Gust Speed Precip Events Conditions
12:15 AM 50.5 °F 49.3 °F 95% 30.11 in 10.0 mi SSW 3.5 mph - N/A   Clear
12:16 AM 50.7 °F 49.5 °F 95% 30.11 in 10.0 mi SSW 3.5 mph - N/A   Clear
12:35 AM 50.5 °F 49.1 °F 95% 30.11 in 10.0 mi Calm Calm - N/A   Clear
12:36 AM 50.4 °F 48.9 °F 95% 30.12 in 10.0 mi Calm Calm - N/A   Clear
12:59 AM 50.9 °F 48.7 °F 92% 30.12 in 10.0 mi SW 3.5 mph - N/A   Clear
1:17 AM 50.2 °F 48.2 °F 93% 30.11 in 10.0 mi SSW 3.5 mph - N/A   Clear
1:35 AM 49.1 °F 47.5 °F 94% 30.11 in 10.0 mi Calm Calm - N/A   Clear
1:55 AM 48.7 °F 47.5 °F 95% 30.11 in 10.0 mi Calm Calm - N/A   Clear
1:56 AM 48.6 °F 47.3 °F 95% 30.11 in 10.0 mi Calm Calm - N/A   Clear
2:15 AM 48.2 °F 47.1 °F 96% 30.11 in 10.0 mi Calm Calm - N/A   Clear
2:20 AM 47.7 °F 46.9 °F 97% 30.11 in 10.0 mi Calm Calm - N/A   Clear
2:38 AM 47.3 °F 46.8 °F 98% 30.11 in 10.0 mi Calm Calm - N/A   Clear
2:56 AM 47.5 °F 47.3 °F 99% 30.11 in 10.0 mi Calm Calm - N/A   Clear
3:15 AM 48.0 °F 47.5 °F 98% 30.11 in 10.0 mi Calm Calm - N/A   Clear
3:35 AM 47.1 °F 46.6 °F 98% 30.11 in 10.0 mi Calm Calm - N/A   Clear
3:36 AM 46.9 °F 46.4 °F 98% 30.11 in 10.0 mi Calm Calm - N/A   Clear
3:55 AM 46.6 °F 46.4 °F 99% 30.11 in 10.0 mi Calm Calm - N/A   Clear
3:59 AM 46.8 °F 46.6 °F 99% 30.11 in 10.0 mi Calm Calm - N/A   Clear
4:18 AM 46.2 °F 46.0 °F 99% 30.12 in 10.0 mi Calm Calm - N/A   Clear
4:36 AM 45.9 °F 45.7 °F 99% 30.12 in 7.0 mi Calm Calm - N/A   Clear
4:55 AM 46.4 °F 46.2 °F 99% 30.12 in 3.0 mi Calm Calm - N/A   Mostly Cloudy
5:15 AM 45.7 °F 45.5 °F 99% 30.14 in 10.0 mi Calm Calm - N/A   Mostly Cloudy
5:39 AM 45.7 °F 45.5 °F 99% 30.15 in 10.0 mi Calm Calm - N/A   Mostly Cloudy
5:57 AM 45.5 °F 45.1 °F 99% 30.15 in 10.0 mi Calm Calm - N/A   Mostly Cloudy
6:15 AM 45.1 °F 45.0 °F 99% 30.16 in 10.0 mi Calm Calm - N/A   Scattered Clouds
6:16 AM 45.1 °F 45.0 °F 99% 30.16 in 10.0 mi Calm Calm - N/A   Scattered Clouds
6:35 AM 46.0 °F 45.9 °F 99% 30.17 in 10.0 mi Calm Calm - N/A   Mostly Cloudy
6:55 AM 46.9 °F 46.8 °F 99% 30.18 in 10.0 mi Calm Calm - N/A   Scattered Clouds
7:00 AM 47.3 °F 47.1 °F 99% 30.18 in 10.0 mi Calm Calm - N/A   Scattered Clouds
7:18 AM 48.7 °F 48.6 °F 99% 30.18 in 10.0 mi Calm Calm - N/A   Mostly Cloudy
7:36 AM 50.4 °F 49.6 °F 97% 30.18 in 10.0 mi Calm Calm - N/A   Scattered Clouds
7:55 AM 52.2 °F 50.0 °F 92% 30.18 in 10.0 mi Calm Calm - N/A   Scattered Clouds
8:15 AM 53.6 °F 49.3 °F 85% 30.19 in 10.0 mi Calm Calm - N/A   Clear
8:16 AM 53.8 °F 49.1 °F 84% 30.19 in 10.0 mi Calm Calm - N/A   Clear
8:39 AM 55.6 °F 48.9 °F 78% 30.19 in 10.0 mi Calm Calm - N/A   Clear
8:57 AM 56.8 °F 49.3 °F 76% 30.19 in 10.0 mi Calm Calm - N/A   Clear
9:15 AM 58.3 °F 49.3 °F 72% 30.19 in 10.0 mi Calm Calm - N/A   Scattered Clouds
9:35 AM 60.4 °F 48.6 °F 65% 30.19 in 10.0 mi Calm Calm - N/A   Clear
9:55 AM 62.8 °F 49.1 °F 61% 30.19 in 10.0 mi Calm Calm - N/A   Clear
10:18 AM 64.6 °F 48.0 °F 55% 30.18 in 10.0 mi Calm Calm - N/A   Clear
10:36 AM 67.3 °F 47.1 °F 48% 30.18 in 10.0 mi WSW 4.6 mph - N/A   Clear
10:55 AM 68.2 °F 46.6 °F 46% 30.18 in 10.0 mi Calm Calm - N/A   Clear
10:56 AM 68.2 °F 46.6 °F 46% 30.18 in 10.0 mi Calm Calm - N/A   Clear
11:15 AM 69.6 °F 46.0 °F 43% 30.17 in 10.0 mi Calm Calm - N/A   Clear
11:39 AM 71.1 °F 44.2 °F 38% 30.17 in 10.0 mi SSW 5.8 mph - N/A   Clear
11:57 AM 72.1 °F 43.2 °F 35% 30.17 in 10.0 mi West 4.6 mph - N/A   Clear
12:15 PM 72.5 °F 43.0 °F 35% 30.17 in 10.0 mi SW 6.9 mph - N/A   Clear
12:16 PM 72.5 °F 42.8 °F 34% 30.17 in 10.0 mi WSW 5.8 mph - N/A   Clear
12:35 PM 73.0 °F 41.9 °F 33% 30.16 in 10.0 mi SW 8.1 mph - N/A   Clear
12:36 PM 73.0 °F 41.5 °F 32% 30.16 in 10.0 mi SSW 5.8 mph - N/A   Clear
12:55 PM 74.1 °F 41.2 °F 31% 30.16 in 10.0 mi SW 5.8 mph - N/A   Clear
1:18 PM 74.3 °F 38.1 °F 27% 30.15 in 10.0 mi SSW 3.5 mph - N/A   Clear
1:36 PM 75.4 °F 39.2 °F 27% 30.15 in 10.0 mi WSW 10.4 mph 17.3 mph N/A   Clear
1:55 PM 75.2 °F 37.8 °F 26% 30.14 in 10.0 mi West 10.4 mph 16.1 mph N/A   Clear
2:15 PM 75.9 °F 37.0 °F 24% 30.14 in 10.0 mi SW 4.6 mph - N/A   Clear
2:16 PM 75.9 °F 37.4 °F 25% 30.14 in 10.0 mi SW 9.2 mph - N/A   Clear
2:39 PM 76.5 °F 34.3 °F 22% 30.13 in 10.0 mi West 8.1 mph - N/A   Clear
2:57 PM 77.0 °F 36.1 °F 23% 30.13 in 10.0 mi WSW 9.2 mph 16.1 mph N/A   Clear
3:15 PM 76.1 °F 34.7 °F 22% 30.13 in 10.0 mi WSW 6.9 mph - N/A   Clear
3:35 PM 76.8 °F 34.7 °F 22% 30.12 in 10.0 mi WSW 8.1 mph - N/A   Clear
3:36 PM 76.8 °F 34.5 °F 22% 30.12 in 10.0 mi WSW 6.9 mph - N/A   Clear
3:55 PM 76.5 °F 34.7 °F 22% 30.12 in 10.0 mi West 9.2 mph - N/A   Clear
4:00 PM 75.9 °F 34.7 °F 22% 30.12 in 10.0 mi WSW 6.9 mph - N/A   Clear
4:18 PM 75.6 °F 34.9 °F 23% 30.11 in 10.0 mi WSW 5.8 mph - N/A   Clear
4:36 PM 77.2 °F 34.9 °F 22% 30.11 in 10.0 mi WSW 8.1 mph - N/A   Clear
4:55 PM 76.6 °F 38.1 °F 25% 30.11 in 10.0 mi SW 11.5 mph - N/A   Clear
4:56 PM 76.6 °F 37.8 °F 25% 30.11 in 10.0 mi SSW 10.4 mph - N/A   Clear
5:15 PM 76.3 °F 34.3 °F 22% 30.10 in 10.0 mi SW 10.4 mph - N/A   Clear
5:16 PM 76.3 °F 34.2 °F 22% 30.10 in 10.0 mi SW 9.2 mph - N/A   Clear
5:39 PM 73.8 °F 34.7 °F 24% 30.10 in 10.0 mi WSW 8.1 mph - N/A   Clear
5:57 PM 75.0 °F 34.5 °F 23% 30.09 in 10.0 mi WSW 9.2 mph - N/A   Clear
6:15 PM 73.2 °F 38.1 °F 28% 30.09 in 10.0 mi SW 8.1 mph - N/A   Clear
6:16 PM 73.2 °F 38.1 °F 28% 30.09 in 10.0 mi SSW 9.2 mph - N/A   Clear
6:35 PM 74.1 °F 39.0 °F 28% 30.08 in 10.0 mi SSW 8.1 mph - N/A   Clear
6:36 PM 73.9 °F 39.0 °F 28% 30.08 in 10.0 mi SW 8.1 mph - N/A   Clear
6:55 PM 72.1 °F 37.8 °F 29% 30.08 in 10.0 mi SW 6.9 mph - N/A   Clear
7:00 PM 71.8 °F 38.7 °F 30% 30.08 in 10.0 mi SSW 5.8 mph - N/A   Clear
7:18 PM 71.6 °F 41.9 °F 34% 30.08 in 10.0 mi SSW 4.6 mph - N/A   Clear
7:36 PM 70.9 °F 43.7 °F 38% 30.08 in 10.0 mi SSW 3.5 mph - N/A   Clear
7:55 PM 69.6 °F 45.9 °F 43% 30.07 in 10.0 mi Calm Calm - N/A   Clear
8:15 PM 69.4 °F 45.1 °F 42% 30.07 in 10.0 mi Calm Calm - N/A   Clear
8:39 PM 68.7 °F 45.1 °F 43% 30.08 in 10.0 mi West 5.8 mph - N/A   Clear
8:57 PM 66.4 °F 44.4 °F 45% 30.08 in 10.0 mi West 12.7 mph 17.3 mph N/A   Scattered Clouds
9:15 PM 65.3 °F 44.2 °F 46% 30.08 in 10.0 mi West 5.8 mph - N/A   Scattered Clouds
9:16 PM 65.3 °F 43.5 °F 45% 30.08 in 10.0 mi West 4.6 mph - N/A   Clear
9:35 PM 64.8 °F 40.6 °F 41% 30.08 in 10.0 mi West 4.6 mph - N/A   Clear
9:36 PM 64.8 °F 40.8 °F 42% 30.08 in 10.0 mi West 5.8 mph - N/A   Scattered Clouds
9:55 PM 64.0 °F 44.8 °F 50% 30.08 in 10.0 mi Calm Calm - N/A   Mostly Cloudy
10:00 PM 64.4 °F 43.3 °F 46% 30.07 in 10.0 mi Calm Calm - N/A   Mostly Cloudy
10:18 PM 62.6 °F 42.8 °F 48% 30.07 in 10.0 mi Calm Calm - N/A   Overcast
10:36 PM 61.0 °F 45.0 °F 56% 30.07 in 10.0 mi ESE 3.5 mph - N/A   Overcast
10:55 PM 61.2 °F 48.2 °F 62% 30.07 in 10.0 mi Calm Calm - N/A   Overcast
10:56 PM 61.2 °F 48.4 °F 63% 30.06 in 10.0 mi East 3.5 mph - N/A   Overcast
11:15 PM 61.7 °F 46.4 °F 57% 30.06 in 10.0 mi ESE 4.6 mph - N/A   Overcast
11:16 PM 61.7 °F 46.8 °F 58% 30.06 in 10.0 mi ESE 4.6 mph - N/A   Overcast
11:39 PM 61.3 °F 46.6 °F 58% 30.05 in 10.0 mi Calm Calm - N/A   Overcast
11:57 PM 60.8 °F 47.7 °F 62% 30.05 in 10.0 mi Calm Calm - N/A   Overcast